Main page
METAR-TAF:

METAR-TAF

Airports :

Sirri, Iran

Sirri Island Airport

latitude: 25-54-34N, longitude: 054-32-22E, elevation: 13 m

Current weather observation

The report was made 46 minutes ago, at 09:00 UTC
Wind 6 kt from the West/Southwest
Temperature 35°C
Humidity 50%
Pressure 1008 hPa
Visibility 10 km or more
no clouds below 1500 m and no cumulonimbus

METAR: OIBS 220900Z 24006KT CAVOK 35/23 Q1008

Time: 13:16 (09:46 UTC)


TAF: missing

Weather observations and forecasts of more than 4000 airports (METAR and TAF reports).

The available stations are represented by yellow and red dots on the map.

Hover mouse over dot to see the name of the station.

Then click to see weather observations and forecasts.

To change the map : click on the green buttons with a black cross to zoom in, on the green button with a dash to zoom out, or on the green arrows for adjacent maps.


METAR-TAF: